"Pseudo-MPEC" for A11gfoL

Created 2025 Jan 6 21:31:02 UT using Find_Orb

Click here for an explanation of pseudo-MPECs

 
 Astrometry: 
     A11gfoL* C2024 12 23.43668705 27 10.277+45 30 03.38   ~CNIH 17.91oVNEOCPT05
     A11gfoL  C2024 12 23.43987905 27 03.526+45 31 30.04   ~CNIH 17.94oVNEOCPT05
     A11gfoL  C2024 12 23.46590505 26 08.794+45 43 03.36   ~CNIH 17.85oVNEOCPT05
     A11gfoL  C2024 12 23.46730205 26 05.657+45 43 43.00   ~CNIH!17.97oVNEOCPT05
     A11gfoL  C2024 12 23.47279505 25 54.598+45 46 01.92   ~CNIH 17.96oVNEOCPT05
     A11gfoL  C2024 12 23.47370005 25 52.781+45 46 25.39   ~CNIH 18.07oVNEOCPT05

Station data:
(T05) ATLAS-HKO, Haleakala  (N20.707551 W156.257010)  US/Hawaii.  Observers
   L. Denneau, A. Heinze, H. Weiland, J. Tonry, H. Flewelling, A.
   Fitzsimmons, D. Young, B. Stalder. Measurers L. Denneau, A. Heinze, J.
   Tonry. 0.5-m f/2.0 Schmidt + CCD.

Orbital elements:  A11gfoL
   Perihelion 2024 Oct 19.92817 +/- 20 TT = 22:16:33 (JD 2460603.42817)
Epoch 2024 Dec 23.0 TT = JDT 2460667.5   Earth MOID: 0.0070   Ve: 0.0108
M  57.92281808 +/- 36               (J2000 ecliptic)             AutoNEOCP
n   0.90402938 +/- 0.397            Peri.  251.54402 +/- 11
a   1.05928872 +/- 0.31             Node    90.52564 +/- 0.24
e   0.4370087 +/- 0.238             Incl.   24.62157 +/- 10
P   1.090/398.210d         H 25.39  G  0.15   U 12.1  SR
q 0.59637024 +/- 0.102    Q 1.52220721 +/- 1.49
5 of 6 observations 2024 Dec. 23 (53.3 min); mean residual 0".36
Residuals in arcseconds: 
241223 T05  .06-  .07-    241223 T05  .72-  .57+    241223 T05  .01+  .24-    
241223 T05  .24+  .05-    241223 T05( 3.2-  3.7+)   241223 T05  .54+  .21-    

Ephemerides (geocentric):
Date (UTC) HH   RA             Dec           delta  r     elong  mag " sig PA
---- --------  ------------   ------------  ------ ------ -----  --- --------
2025 01 06 22  04 12 27.669   +57 49 47.51  .17690 1.1100 132.2 23.5 315'  56
2025 01 06 23  04 12 27.461   +57 49 51.64  .17736 1.1103 132.2 23.5 315'  56
2025 01 07 00  04 12 27.270   +57 49 55.68  .17781 1.1106 132.2 23.5 316'  56
2025 01 07 01  04 12 27.095   +57 49 59.63  .17826 1.1109 132.2 23.5 316'  56
2025 01 07 02  04 12 26.938   +57 50 03.50  .17872 1.1112 132.1 23.5 316'  56
2025 01 07 03  04 12 26.796   +57 50 07.29  .17917 1.1114 132.1 23.5 316'  56
2025 01 07 04  04 12 26.671   +57 50 10.99  .17962 1.1117 132.1 23.5 317'  56
2025 01 07 05  04 12 26.563   +57 50 14.61  .18008 1.1120 132.0 23.5 317'  56
2025 01 07 06  04 12 26.470   +57 50 18.15  .18053 1.1123 132.0 23.5 317'  56
2025 01 07 07  04 12 26.394   +57 50 21.61  .18099 1.1126 132.0 23.5 317'  56
2025 01 07 08  04 12 26.334   +57 50 24.99  .18144 1.1129 132.0 23.5 318'  56
2025 01 07 09  04 12 26.290   +57 50 28.28  .18189 1.1132 131.9 23.5 318'  56
2025 01 07 10  04 12 26.261   +57 50 31.50  .18235 1.1135 131.9 23.5 318'  56
2025 01 07 11  04 12 26.249   +57 50 34.64  .18280 1.1137 131.9 23.5 318'  56
2025 01 07 12  04 12 26.252   +57 50 37.70  .18325 1.1140 131.9 23.5 318'  56
2025 01 07 13  04 12 26.271   +57 50 40.68  .18371 1.1143 131.8 23.6 319'  56
2025 01 07 14  04 12 26.305   +57 50 43.58  .18416 1.1146 131.8 23.6 319'  56
2025 01 07 15  04 12 26.355   +57 50 46.41  .18462 1.1149 131.8 23.6 319'  56
2025 01 07 16  04 12 26.420   +57 50 49.16  .18507 1.1152 131.8 23.6 319'  56
2025 01 07 17  04 12 26.501   +57 50 51.83  .18553 1.1155 131.7 23.6 320'  56
2025 01 07 18  04 12 26.597   +57 50 54.43  .18598 1.1158 131.7 23.6 320'  56
2025 01 07 19  04 12 26.708   +57 50 56.96  .18643 1.1160 131.7 23.6 320'  56
2025 01 07 20  04 12 26.834   +57 50 59.41  .18689 1.1163 131.7 23.6 320'  56
2025 01 07 21  04 12 26.975   +57 51 01.78  .18734 1.1166 131.6 23.6 321'  56
2025 01 07 22  04 12 27.131   +57 51 04.09  .18780 1.1169 131.6 23.6 321'  56
2025 01 07 23  04 12 27.302   +57 51 06.32  .18825 1.1172 131.6 23.6 321'  56
2025 01 08 00  04 12 27.488   +57 51 08.47  .18871 1.1175 131.5 23.6 321'  56
2025 01 08 01  04 12 27.689   +57 51 10.56  .18916 1.1178 131.5 23.6 321'  56
2025 01 08 02  04 12 27.904   +57 51 12.57  .18962 1.1180 131.5 23.6 322'  56
2025 01 08 03  04 12 28.134   +57 51 14.52  .19007 1.1183 131.5 23.6 322'  56
2025 01 08 04  04 12 28.378   +57 51 16.39  .19053 1.1186 131.4 23.6 322'  56
2025 01 08 05  04 12 28.637   +57 51 18.19  .19098 1.1189 131.4 23.7 322'  56
2025 01 08 06  04 12 28.910   +57 51 19.93  .19143 1.1192 131.4 23.7 323'  56
2025 01 08 07  04 12 29.198   +57 51 21.59  .19189 1.1195 131.4 23.7 323'  56
2025 01 08 08  04 12 29.499   +57 51 23.19  .19234 1.1198 131.3 23.7 323'  56
2025 01 08 09  04 12 29.815   +57 51 24.71  .19280 1.1200 131.3 23.7 323'  57
2025 01 08 10  04 12 30.145   +57 51 26.17  .19325 1.1203 131.3 23.7 323'  57
2025 01 08 11  04 12 30.490   +57 51 27.57  .19371 1.1206 131.3 23.7 324'  57
2025 01 08 12  04 12 30.848   +57 51 28.89  .19416 1.1209 131.2 23.7 324'  57
2025 01 08 13  04 12 31.220   +57 51 30.15  .19462 1.1212 131.2 23.7 324'  57
2025 01 08 14  04 12 31.605   +57 51 31.35  .19507 1.1215 131.2 23.7 324'  57
2025 01 08 15  04 12 32.005   +57 51 32.47  .19553 1.1218 131.2 23.7 324'  57
2025 01 08 16  04 12 32.418   +57 51 33.54  .19598 1.1220 131.1 23.7 325'  57
2025 01 08 17  04 12 32.845   +57 51 34.54  .19644 1.1223 131.1 23.7 325'  57
2025 01 08 18  04 12 33.286   +57 51 35.47  .19689 1.1226 131.1 23.7 325'  57
2025 01 08 19  04 12 33.740   +57 51 36.34  .19735 1.1229 131.1 23.7 325'  57
2025 01 08 20  04 12 34.208   +57 51 37.15  .19781 1.1232 131.0 23.7 325'  57
2025 01 08 21  04 12 34.689   +57 51 37.89  .19826 1.1235 131.0 23.7 326'  57